Location: Sternwarte ZA, Rosenfeld-Brittheim
(48.2889°N, 8.6789°E)
Time: 01:12:28
(UTC+02:00)

ISS - Pass Details

Date: 21 July 2018
Orbit: 402 x 408 km, 51.6° (Epoch: 18 July)

Event Time Altitude Azimuth Distance (km) Brightness Sun altitude
Rises 04:34:19 0° 289° (WNW) 2,332 -0.2 -10.0°
Reaches altitude 10° 04:36:36 10° 276° (W) 1,469 -1.3 -9.8°
Maximum altitude 04:39:25 26° 217° (SW) 834 -2.8 -9.5°
Drops below altitude 10° 04:42:13 10° 158° (SSE) 1,463 -1.2 -9.1°
Sets 04:44:29 0° 146° (SE) 2,319 -0.1 -8.9°
